Weather History for Palmdale, CA

Change the Weather History Date:

Wednesday, December 11, 2013

  Actual Average Record
Temperature  
Mean Temperature 37 °F 44 °F  
Max Temperature 51 °F 58 °F 72 °F (1977)
Min Temperature 22 °F 31 °F 12 °F (1972)
Degree Days  
Heating Degree Days 28 21  
Month to date heating degree days 264 217  
Since 1 July heating degree days 777 744  
Cooling Degree Days 0 0  
Month to date cooling degree days 0 0  
Year to date cooling degree days 2126 1815  
Moisture  
Dew Point 11 °F    
Average Humidity 43    
Maximum Humidity 68    
Minimum Humidity 17    
Precipitation  
Precipitation 0.00 in 0.02 in 3.43 in (1943)
Month to date precipitation T 0.16  
Year to date precipitation 2.93 7.31  
Since 1 July precipitation 2.07 1.99  
Snow  
Snow 0.00 in - 0.00 in (1973)
Month to date snowfall 0.0  
Since 1 July snowfall 0.0  
Snow Depth 0.00 in    
Sea Level Pressure  
Sea Level Pressure 30.31 in    
Wind  
Wind Speed 2 mph (WSW)    
Max Wind Speed 7 mph    
Max Gust Speed -    
Visibility 10 miles    
Events      
T = Trace of Precipitation, MM = Missing Value Source: NWS Daily Summary

Daily Weather History Graph

Daily Weather History Graph

Search for Another Location

Airport:

Trip Planner

Search our weather history database for the weather conditions in past years. The results will help you decide how hot, cold, wet, or windy it might be!

Date:

Astronomy

Dec. 11, 2013 Rise Set
Actual Time 6:49 AM PST 4:42 PM PST
Civil Twilight 6:21 AM PST 5:10 PM PST
Nautical Twilight 5:50 AM PST 5:41 PM PST
Astronomical Twilight 5:19 AM PST 6:12 PM PST
Moon 1:08 PM PST (12/11) 1:26 AM PST (12/11)
Length of Visible Light 10h 48m
Length of Day
9h 52m
Waxing Gibbous, 72% of the Moon is Illuminated
Dec 11
Waxing Gibbous
Dec 17
Full
Dec 25
Last Quarter
Jan 1
New
Jan 7
First Quarter

Hourly Weather History & Observations

Time (PST) Temp. Windchill Dew Point Humidity Pressure Visibility Wind Dir Wind Speed Gust Speed Precip Events Conditions
12:53 AM 25.0 °F - 10.9 °F 55% 30.27 in 10.0 mi Calm Calm - N/A   Clear
1:53 AM 23.0 °F - 10.9 °F 60% 30.28 in 10.0 mi Calm Calm - N/A   Clear
2:53 AM 23.0 °F 15.8 °F 14.0 °F 68% 30.28 in 10.0 mi South 5.8 mph - N/A   Clear
3:53 AM 23.0 °F 17.0 °F 10.9 °F 60% 30.28 in 10.0 mi SSW 4.6 mph - N/A   Clear
4:53 AM 23.0 °F - 12.0 °F 63% 30.28 in 10.0 mi Calm Calm - N/A   Clear
5:53 AM 23.0 °F 18.4 °F 10.0 °F 58% 30.31 in 10.0 mi WSW 3.5 mph - N/A   Clear
6:53 AM 24.1 °F - 10.9 °F 57% 30.34 in 10.0 mi Calm Calm - N/A   Clear
7:53 AM 26.1 °F - 14.0 °F 60% 30.37 in 10.0 mi Calm Calm - N/A   Clear
8:53 AM 32.0 °F - 12.0 °F 44% 30.37 in 10.0 mi Calm Calm - N/A   Clear
9:53 AM 37.9 °F - 8.1 °F 29% 30.37 in 10.0 mi Calm Calm - N/A   Clear
10:53 AM 42.1 °F - 3.9 °F 21% 30.35 in 10.0 mi Calm Calm - N/A   Clear
11:53 AM 44.1 °F - 3.9 °F 19% 30.32 in 10.0 mi Calm Calm - N/A   Clear
12:53 PM 46.9 °F - 7.0 °F 20% 30.29 in 10.0 mi North 4.6 mph - N/A   Clear
1:53 PM 48.9 °F - 8.1 °F 19% 30.28 in 10.0 mi North 5.8 mph - N/A   Clear
2:53 PM 50.0 °F - 8.1 °F 18% 30.28 in 10.0 mi North 5.8 mph - N/A   Clear
3:53 PM 51.1 °F - 9.0 °F 18% 30.28 in 10.0 mi Calm Calm - N/A   Clear
4:53 PM 48.9 °F - 9.0 °F 20% 30.29 in 10.0 mi Calm Calm - N/A   Clear
5:53 PM 42.1 °F - 10.9 °F 28% 30.31 in 10.0 mi Calm Calm - N/A   Clear
6:53 PM 37.0 °F 31.6 °F 14.0 °F 39% 30.32 in 10.0 mi SSW 6.9 mph - N/A   Clear
7:53 PM 33.1 °F 30.0 °F 15.1 °F 48% 30.33 in 10.0 mi SSW 3.5 mph - N/A   Clear
8:53 PM 34.0 °F - 14.0 °F 44% 30.34 in 10.0 mi Calm Calm - N/A   Clear
9:53 PM 35.1 °F - 12.9 °F 40% 30.33 in 10.0 mi Calm Calm - N/A   Clear
10:53 PM 30.9 °F - 16.0 °F 54% 30.33 in 10.0 mi Calm Calm - N/A   Clear
11:53 PM 33.1 °F - 14.0 °F 46% 30.32 in 10.0 mi Calm Calm - N/A   Clear